Regional Weather Roundup
Issued by NWS Cleveland, OH

Home | Current Version | Previous Version | Graphics & Text | Print | Product List | Glossary On
Versions: 1 2 3 4 5 6 7 8 9 10 11 12 13 14 15 16 17 18 19 20 21 22 23 24 25 26 27 28 29 30 31 32 33 34 35 36 37 38 39 40 41 42 43 44 45 46 47 48 49 50
000
ASUS41 KCLE 291200
RWRCLE
OHIO REGIONAL WEATHER ROUNDUP
NATIONAL WEATHER SERVICE WILMINGTON, OH
800 AM EDT FRI AUG 29 2014

NOTE: "FAIR" INDICATES FEW OR NO CLOUDS BELOW 12,000 FEET WITH NO
SIGNIFICANT WEATHER AND/OR OBSTRUCTIONS TO VISIBILITY.

OHZ001>008-015>018-024>027-034-035-043-044-291300-
   NORTHWEST OHIO

CITY           SKY/WX    TMP DP  RH WIND       PRES   REMARKS
DEFIANCE       PTSUNNY   62  54  74 E6        30.12R
FINDLAY        MOSUNNY   59  53  80 SE7       30.12R
TOLEDO EXPRESS MOSUNNY   57  51  80 SE3       30.14R
TOLEDO METCALF MOSUNNY   58  51  78 SE6       30.15R
LIMA           PTSUNNY   62  53  72 SE9       30.12R
$$

OHZ009>014-019>023-028>033-038-089-291300-
   NORTHEAST OHIO

CITY           SKY/WX    TMP DP  RH WIND       PRES   REMARKS
CLE-HOPKINS    MOSUNNY   54  50  86 CALM      30.19R
CLE-LAKEFRONT  MOSUNNY   59  51  75 SE3       30.16S
CUY CO. ARPT   PTSUNNY   55  52  88 SE9       30.18R
LORAIN-ELYRIA  SUNNY     56  51  84 S5        30.17R
ASHTABULA      MOSUNNY   54  52  93 CALM      30.19S
AKRON-CANTON   MOSUNNY   55  48  77 E7        30.17R
WOOSTER        NOT AVBL
MANSFIELD      SUNNY     58  52  80 SE7       30.16R
YOUNGSTOWN     PTSUNNY   53  50  89 E8        30.18S
$$

OHZ042-051>053-060>062-070>072-077>081-291300-
  SOUTHWEST OHIO

CITY           SKY/WX    TMP DP  RH WIND       PRES   REMARKS
CINC-COVINGTON PTCLDY    68  59  73 E7        30.09R
CINC-LUNKEN    CLEAR     64  62  93 CALM      30.10R
HAMILTON       CLEAR     66  60  81 CALM      30.11R
DAYTON         NOT AVBL
WRIGHT-PAT AFB SUNNY     63  57  80 E5        30.12R
DAYTON GENERAL MOSUNNY   64  58  80 E8        30.10R
WILMINGTON     MOSUNNY   61  56  83 E7        30.12R
$$

OHZ036-037-039>041-045>050-054>059-063>069-073>076-082>088-291300-
  CENTRAL AND SOUTHEAST OHIO

CITY           SKY/WX    TMP DP  RH WIND       PRES   REMARKS
COLUMBUS       MOSUNNY   63  53  70 E7        30.14R
OSU AIRPORT    SUNNY     60  55  83 E3        30.14R
BOLTON FIELD   SUNNY     61  55  82 E5        30.14S
RICKENBACK AFB NOT AVBL
NEWARK         SUNNY     58  54  86 CALM      30.15R
MARION         SUNNY     59  52  77 SE8       30.14R
LANCASTER      SUNNY     60  55  83 CALM      30.15R
ZANESVILLE     SUNNY     56  52  86 CALM      30.15S
NEW PHILLY     FOG       51  51 100 CALM      30.18R VSB 1/2
$$


USA.gov is the U.S. government's official web portal to all federal, state and local government web resources and services.